Aérodrome :
LOGIN :

S'inscrire | Disclaimer

   EN    FR    IT 

 










Légende :    VFR   VFR Marginal   IFR   IFR Intensif   IFR Très Intensif
Visi : 
Plafond : 
>= 8 km
>= 3000ft
5 à 8 km
1000 à 3000 ft
1500m à 5 km
500 à 1000 ft
800 à 1500m
200 à 500 ft
< 800m
< 200 ft
Symboles :   Orages  Brouillard  Fortes neiges  Fortes précipitations  Vent > 20 kt
SIGMETs :   Divers  Orages  Givrage  Turbulence  Onde Orograph.  Cendres Volcan.







- Altitude de l'aérodrome : 1411 ft
- Code IATA : ZHI


LSZG - Grenchen

DERNIER METAR :
  • 190320Z AUTO 20004KT 170V240 9999 NSC 15/14 Q1020

METARs EXPIRÉS :
  • 190250Z AUTO 20003KT CAVOK 16/13 Q1020
  • 190220Z AUTO 26008KT CAVOK 17/12 Q1020
  • 190150Z AUTO 21005KT CAVOK 16/14 Q1020
  • 190120Z AUTO 24008KT 9999 NSC 17/13 Q1019
  • 190050Z AUTO 26007KT 9999 NCD 17/13 Q1019

Prévision TAF périmée.
ATIS : +41 32 396 96 33
Pas de NOTAMs connus pour ce terrain.



MET'MAP, la Météo Aéronautique d'un coup d'oeil ! - Copyright ORBIFLY Décembre 2007 - Disclaimer

ORBIFLY MET'MAP TEAM :

Programmation & Développement : Alexandra Zaïnal
Conception & Développement : Baudouin d'Aumeries
Co-Programmation & Développement : Marc-Olivier Méhu
Soutien technique & logistique : Manuel Goepfert

Contact : metmap@orbifly.com




SOURCES & CREDITS :

   NOAA